Lexington Weather

Lexington, Massachusetts, USA

68°F
7/3/2020 1:09pm 
  • Lexington Conditions: Overcast
  • Temperature: 68.0°F / 20.0°CColder 0.2°F than last hour.
  • Dew Point: 63.7°FDecreased 0.5°Fsince last hour.
  • Relative Humidity: 86%Decreased 1.0% since last hour.
  • Wind: Wind from NNE NNE Calm, 10-min avg: 1 mph, gust: 3 mph
  • Barometer: 29.86 in Steady
  • Visibility: 10 miles
  • Rain Today: 0.00 in
  •   

Regional Weather Roundup
for Boston / Norton, MA

        
000
ASUS41 KBOX 272304
RWRBOX

REGIONAL WEATHER ROUNDUP
NATIONAL WEATHER SERVICE BOSTON/NORTON MA
700 PM EDT SAT JUN 27 2020

NOTE:  "FAIR" INDICATES FEW OR NO CLOUDS BELOW 12,000 FEET WITH NO 
SIGNIFICANT WEATHER AND/OR OBSTRUCTIONS TO VISIBILITY.

MAZALL-280000-
EASTERN MASSACHUSETTS
  
CITY           SKY/WX    TMP DP  RH WIND       PRES   REMARKS
BOSTON         CLOUDY    70  64  81 S5        29.72F                  
BEVERLY        CLOUDY    74  64  71 S9        29.70F                  
LAWRENCE       CLOUDY    75  62  64 VRB3      29.73F                  
BEDFORD        CLOUDY    73  63  70 VRB5      29.70F                  
BLUE HILL        N/A     66  64  93 SE8       29.72F                  
NORWOOD        CLOUDY    70  65  84 SE6       29.71F                  
MARSHFIELD     LGT RAIN  70  70 100 VRB3      29.72S                  
PLYMOUTH       HVY RAIN  67  66  97 SE7       29.72F FOG              
TAUNTON        LGT RAIN  69  66  90 SE8       29.70F FOG              
NEW BEDFORD    CLOUDY    70  69  97 SE13      29.70F FOG              
$$

MAZALL-280000-
CAPE COD AND THE ISLANDS
  
CITY           SKY/WX    TMP DP  RH WIND       PRES   REMARKS
FALMOUTH       RAIN      68  68 100 SE12      29.73F VSB 3/4          
HYANNIS        HVY RAIN  71  68  90 SE7       29.72F FOG              
CHATHAM        LGT RAIN  65  64  97 S7        29.76F FOG              
PROVINCETOWN   LGT RAIN  69  68  96 S10       29.75S                  
NANTUCKET      LGT RAIN  66  64  93 SE9       29.75F FOG              
MARTHAS VNYRD  LGT RAIN  68  67  96 SE13      29.71F FOG              
$$
 
MAZALL-280000-
CENTRAL AND WESTERN MASSACHUSETTS
  
CITY           SKY/WX    TMP DP  RH WIND       PRES   REMARKS
WORCESTER      CLOUDY    66  61  84 SE5       29.74S                  
FITCHBURG      CLOUDY    73  62  68 S7        29.72F                  
ORANGE         CLOUDY    70  63  78 VRB3      29.72F                  
SPRINGFIELD    CLOUDY    67  65  93 CALM      29.70S                  
WESTFIELD      CLOUDY    67  64  90 NW3       29.71S                  
NORTH ADAMS    CLOUDY    67  64  90 CALM      29.72F                  
PITTSFIELD     CLOUDY    66  63  90 CALM      29.73S                  
$$
 
RIZALL-280000-
RHODE ISLAND
  
CITY           SKY/WX    TMP DP  RH WIND       PRES   REMARKS
PROVIDENCE     CLOUDY    69  68  96 SE14      29.69F                  
NEWPORT        LGT RAIN  69  67  93 SE8       29.69F FOG              
BLOCK ISLAND   LGT RAIN  68  67  96 SW14      29.69S FOG              
SMITHFIELD     LGT RAIN  65  65 100 NE7       29.71F                  
WESTERLY       CLOUDY    73  67  81 SW7       29.68S                  
$$
 
CTZALL-280000-
CONNECTICUT
  
CITY           SKY/WX    TMP DP  RH WIND       PRES   REMARKS
BRADLEY INTL   CLOUDY    65  63  93 N7        29.70S                  
HARTFORD       CLOUDY    68  64  87 N7        29.70R                  
BRIDGEPORT     CLOUDY    78  71  79 N6        29.69R                  
DANBURY        PTSUNNY   75  67  76 VRB6      29.72R                  
GROTON         CLOUDY    70  68  93 SW5       29.67S                  
NEW HAVEN      CLOUDY    76  71  85 N6        29.69R                  
CHESTER        NOT AVBL                                               
MERIDEN        CLOUDY    69  65  86 NW9       29.71R                  
WILLIMANTIC    CLOUDY    67  66  97 N7        29.69R                  
OXFORD         PTSUNNY   70  67  90 N8        29.73R                  
$$

MEZ002-015-021-024-NHZ003-005-008-011-012-014-VTZ005-008-280000-
NORTHERN NEW ENGLAND
  
CITY           SKY/WX    TMP DP  RH WIND       PRES   REMARKS
PORTLAND ME    PTSUNNY   75  61  61 S9        29.71F                  
BANGOR ME      PTSUNNY   74  58  57 S6        29.73S                  
CONCORD NH     CLOUDY    71  61  70 SE3       29.71F                  
MANCHESTER NH  CLOUDY    75  59  57 SW3       29.70F                  
NASHUA NH      CLOUDY    74  65  73 SE5       29.71F                  
PORTSMOUTH NH  CLOUDY    75  55  49 S3        29.69F                  
JAFFREY NH     CLOUDY    69  60  73 VRB3      29.74F                  
KEENE NH       CLOUDY    69  62  78 SW3       29.72F                  
BURLINGTON VT  PTSUNNY   77  56  48 S13       29.67S                  
MT. WASHINGTON CLOUDY    52  48  87 S14G21      N/A                   
$$

NYZ052-076-280000-
EASTERN NEW YORK
  
CITY           SKY/WX    TMP DP  RH WIND       PRES   REMARKS
ALBANY         CLOUDY    70  63  78 S5        29.73R                  
NEW YORK CITY  PTSUNNY   76  68  76 NW10      29.70R                  
$$
 
ANZALL-280000-
MARINE OBSERVATIONS
  
STATION/POSITION TIME  TEMP    WIND        PRES    VSBY  WAVE
                       AIR SEA DIR/SP/G                  HT/PER
                 (UTC) (F)     (DEG/KT/KT) (MB)    (MI)  (FT/S)
BOSTON BUOY      2250   67 68  160/ 10/ 10 1005.2F         1/10
BUZZARDS BAY     2200          130/ 16/ 17 1007.1F
NANTUCKET SOUND  2240   67 71  120/ 10/ 14 1006.2F
MASS BAY-STELLWA 2204   66     220/  8/  8 1004.2F  1 7/8  2/ 8
ISLE OF SHOALS   2200   75     200/ 11/ 12 1006.0S
S OF BLOCK IS    2226      70                N/A           3/ 8
$$

......................KEY.........................
  SKY/WX - SKY CONDITION/PRESENT WEATHER
  TMP    - TEMPERATURE IN FAHRENHEIT
  DWPT   - DEWPOINT IN FAHRENHEIT
  RH     - RELATIVE HUMIDITY IN PERCENT
  WIND   - DIRECTION AND SPEED IN MPH
  PRES   - MEAN SEA LEVEL PRESSURE IN INCHES OF HG
  WCI    - WIND CHILL INDEX
  VSB    - VISIBILITY IN MILES
  HX     - HEAT INDEX
  TC     - TEMPERATURE IN CELSIUS
  VRB    - VARIABLE WIND DIRECTION
  N/A    - NOT AVAILABLE
  
      

Other recent Regional Weather Roundups

Fri Jul 3, 12:04pm

Fri Jul 3, 11:04am

Fri Jul 3, 10:04am

Fri Jul 3, 9:04am

Fri Jul 3, 8:04am

Fri Jul 3, 7:04am

Fri Jul 3, 6:04am

Fri Jul 3, 5:04am

Fri Jul 3, 4:04am

Fri Jul 3, 3:04am

Fri Jul 3, 2:04am

Fri Jul 3, 1:04am

Fri Jul 3, 12:04am

Thu Jul 2, 11:05pm

Thu Jul 2, 10:04pm

Thu Jul 2, 9:04pm

Thu Jul 2, 8:04pm

Thu Jul 2, 7:05pm

Thu Jul 2, 6:04pm

Thu Jul 2, 5:05pm

Thu Jul 2, 4:04pm

Thu Jul 2, 3:04pm

Thu Jul 2, 2:04pm

Thu Jul 2, 1:05pm

Thu Jul 2, 12:04pm

Thu Jul 2, 11:04am

Thu Jul 2, 10:05am

Thu Jul 2, 9:05am

Thu Jul 2, 8:04am

Thu Jul 2, 7:04am

Thu Jul 2, 6:05am

Thu Jul 2, 5:04am

Thu Jul 2, 4:04am

Thu Jul 2, 3:04am

Thu Jul 2, 2:04am

Thu Jul 2, 1:04am

Thu Jul 2, 12:05am

Wed Jul 1, 11:05pm

Wed Jul 1, 10:04pm

Wed Jul 1, 9:04pm

Wed Jul 1, 8:04pm

Wed Jul 1, 7:04pm

Wed Jul 1, 6:04pm

Wed Jul 1, 5:05pm

Wed Jul 1, 4:04pm

Wed Jul 1, 3:04pm

Wed Jul 1, 2:04pm

Wed Jul 1, 1:04pm

Wed Jul 1, 12:04pm

Wed Jul 1, 11:04am

Wed Jul 1, 10:04am

Wed Jul 1, 9:04am

Wed Jul 1, 8:05am

Wed Jul 1, 7:04am

Wed Jul 1, 6:04am

Wed Jul 1, 5:04am

Wed Jul 1, 4:04am

Wed Jul 1, 3:04am

Wed Jul 1, 2:04am

Wed Jul 1, 1:04am

Wed Jul 1, 12:04am

Tue Jun 30, 11:04pm

Tue Jun 30, 10:05pm

Tue Jun 30, 9:04pm

Tue Jun 30, 8:05pm

Tue Jun 30, 7:05pm

Tue Jun 30, 6:04pm

Tue Jun 30, 5:04pm

Tue Jun 30, 4:04pm

Tue Jun 30, 3:04pm

Tue Jun 30, 2:04pm

Tue Jun 30, 1:04pm

Tue Jun 30, 12:04pm

Tue Jun 30, 11:04am

Tue Jun 30, 10:04am

Tue Jun 30, 9:04am

Tue Jun 30, 8:04am

Tue Jun 30, 7:04am

Tue Jun 30, 6:04am

Tue Jun 30, 5:04am

Tue Jun 30, 4:04am

Tue Jun 30, 3:04am

Tue Jun 30, 2:04am

Tue Jun 30, 1:04am

Tue Jun 30, 12:04am

Mon Jun 29, 11:04pm

Mon Jun 29, 10:05pm

Mon Jun 29, 9:04pm

Mon Jun 29, 8:05pm

Mon Jun 29, 7:04pm

Mon Jun 29, 6:04pm

Mon Jun 29, 5:04pm

Mon Jun 29, 4:05pm

Mon Jun 29, 3:04pm

Mon Jun 29, 2:04pm

Mon Jun 29, 1:04pm

Mon Jun 29, 12:04pm

Mon Jun 29, 11:04am

Mon Jun 29, 10:04am

Mon Jun 29, 9:04am

Mon Jun 29, 8:04am

Mon Jun 29, 7:04am

Mon Jun 29, 6:04am

Mon Jun 29, 5:04am

Mon Jun 29, 4:04am

Mon Jun 29, 3:04am

Mon Jun 29, 2:04am

Mon Jun 29, 1:04am

Mon Jun 29, 12:04am

Sun Jun 28, 11:05pm

Sun Jun 28, 10:04pm

Sun Jun 28, 9:05pm

Sun Jun 28, 8:04pm

Sun Jun 28, 7:04pm

Sun Jun 28, 6:04pm

Sun Jun 28, 5:04pm

Sun Jun 28, 4:04pm

Sun Jun 28, 3:04pm

Sun Jun 28, 2:05pm

Sun Jun 28, 1:04pm

Sun Jun 28, 12:04pm

Sun Jun 28, 11:04am

Sun Jun 28, 10:04am

Sun Jun 28, 9:04am

Sun Jun 28, 8:04am

Sun Jun 28, 7:04am

Sun Jun 28, 6:04am

Sun Jun 28, 5:04am

Sun Jun 28, 4:04am

Sun Jun 28, 3:04am

Sun Jun 28, 2:05am

Sun Jun 28, 1:04am

Sun Jun 28, 12:05am

Sat Jun 27, 11:04pm

Sat Jun 27, 10:04pm

Sat Jun 27, 9:04pm

Sat Jun 27, 8:04pm

Sat Jun 27, 6:04pm

Sat Jun 27, 5:04pm

Sat Jun 27, 4:05pm

Sat Jun 27, 3:04pm

Sat Jun 27, 2:04pm

Sat Jun 27, 1:05pm

Sat Jun 27, 12:04pm

Sat Jun 27, 11:04am

Sat Jun 27, 10:04am

Sat Jun 27, 9:04am

Sat Jun 27, 8:04am

Sat Jun 27, 7:04am

Sat Jun 27, 6:04am

Sat Jun 27, 5:05am

Sat Jun 27, 4:04am

Sat Jun 27, 3:04am

Sat Jun 27, 2:04am

Sat Jun 27, 1:04am

Sat Jun 27, 12:04am

Fri Jun 26, 11:04pm

Fri Jun 26, 10:04pm

Fri Jun 26, 9:05pm

Fri Jun 26, 8:04pm

Fri Jun 26, 7:05pm

Fri Jun 26, 6:04pm

Fri Jun 26, 5:04pm

Fri Jun 26, 4:04pm

Fri Jun 26, 3:04pm

Fri Jun 26, 2:05pm

Fri Jun 26, 1:04pm

Meta data:

ID: 5c3a5add-1176-4946-9499-69ba1d79f52d
Link: https://api.weather.gov/products/5c3a5add-1176-4946-9499-69ba1d79f52d